SCP
-0 -0 -0 -0 -0 0 0 0 0 -0 0 -0 -0 -0 -0 0 0 0 -0 -1 -1 -0 -0 -0 -0 -0 -0 0 -0 -0 -0 -0 -0 -0 -0 0 -0 -0 -0 -0 -0 -0 -0 -0 -0 -0 -0 -0 -0
0 -0 -0 1 0 0 -0 0 0 -0 -0 -0 -0 -0 -0 -0 -0 -0 -0 -1 -0 -0 -0 -0 -0 -0 -0 -0 -0 -0 -0 -0 -0 -0 -0 -0 0 0 0 -0 -0 0 -0 -0 -0 -0 -0 -0 -0
0 0 0 0 0 0 0 0 -0 -0 0 -0 0 -0 0 -0 -0 -0 -0 -1 -0 -0 -0 -0 -0 -0 -0 -0 -0 -0 -0 -0 -0 -0 -0 -0 -0 0 0 0 0 -0 -0 -0 -0 -0 -0 -0 0
0 0 0 -0 0 0 -0 -0 -0 0 -0 -0 -0 -0 -0 0 -0 -0 -0 -0 -0 -0 -1 -0 -0 -0 -0 -0 -0 -0 -0 -0 -0 -0 -0 -0 -0 0 0 0 -0 -0 -0 -0 -0 -0 -0 -0 0
-0 0 0 0 0 -0 0 0 0 0 0 -0 -0 -0 -0 -0 -0 -0 -0 -0 -0 -1 -1 -0 -0 -0 -0 -0 -0 -0 -0 -0 -0 -0 -0 -0 -0 -0 -0 -0 -0 -0 -0 -0 -0 -0 -0 -0 -0
0 0 0 -0 0 -0 0 0 0 -0 -0 0 -0 -0 -0 -0 -0 -0 -0 -0 -2 -2 -0 -0 -0 -0 -0 -0 -0 -0 -0 -0 -0 -0 -0 -0 -0 -0 -0 -0 -0 -0 -0 -0 -0 -0 -0 -0 -0
-0 0 0 0 -0 0 0 0 0 0 -0 -0 -0 -0 -0 -0 -0 0 -0 -1 -1 -1 -1 -0 -0 -0 -0 -0 -0 -0 -0 -0 -0 -0 -0 -0 -0 -0 -0 -0 -0 -0 -0 -0 -0 -0 -0 -0 -0
-0 0 0 0 0 0 -0 0 0 -0 -0 -0 -0 0 -0 -0 -0 0 -0 -1 -0 -2 -0 -0 -0 -0 -0 -0 -0 -0 -0 -0 -0 -0 -0 -0 -0 -0 -0 -0 -0 -0 -0 -0 -0 -0 -0 -0 -0
-0 0 0 0 0 -0 -0 -0 -0 -0 0 -0 -0 -0 -0 -0 -0 -0 -0 -0 -0 -0 0 -0 -0 -0 0 -0 -0 -0 -0 -0 -0 -0 -0 0 0 -0 -0 -0 -0 -0 -0 -0 -0 -0 -0 -0 -0
-0 0 0 0 0 0 0 0 0 0 -0 -0 -0 -0 -0 -0 -0 -0 -0 -0 -0 -0 -0 -0 -0 -0 -0 -0 -0 -0 -0 -0 -0 -0 0 -0 -0 0 -0 -0 -0 -0 -0 -0 -0 -0 -0 -0 -0
-0 0 -0 -0 -0 -0 -0 -0 -0 -0 0 0 -0 -0 -0 -0 -0 -0 -0 -0 -0 -0 -0 -0 -0 -0 -0 -0 -0 0 0 -0 -0 0 -0 0 0 -0 0 0 -0 -0 -0 -0 -0 -0 -0 -0 0
0 0 -0 0 -0 0 -0 -0 0 0 0 -0 -0 -0 -0 -0 -0 -0 -0 -0 -0 0 -0 -0 -0 -0 -0 -0 -0 -0 0 0 -0 -0 0 -0 0 0 0 0 -0 -0 -0 0 -0 -0 -0 0 0
-0 0 -0 0 0 0 -0 -0 0 -0 -0 -0 -0 -0 -0 -0 -0 -0 -1 -0 -0 0 -0 -0 -0 -0 -0 -0 0 -0 -0 0 0 -0 -0 0 0 0 0 0 0 0 -0 -0 0 -0 -0 -0 -0
0 0 -0 0 0 -0 0 -0 0 -0 -0 0 0 -0 -0 -0 -0 -0 -0 -1 -0 -0 -0 -0 -0 -0 0 0 -0 0 -0 0 0 -0 -0 0 0 0 0 0 -0 -0 -0 -0 -0 0 0 -0 -0
0 0 -0 -0 0 0 0 -0 -0 0 -0 -0 -0 -0 -0 -0 -0 -0 -0 -0 -0 -0 -0 -0 -0 -0 0 0 0 0 -0 -0 0 0 0 0 0 0 0 0 -0 -0 -0 -0 -0 0 -0 -0 -0
-0 -0 -0 0 0 -0 0 0 0 0 0 -0 -0 -0 -0 -0 -0 -0 -0 -0 0 0 0 -0 -0 -0 -0 -0 0 -0 -0 0 0 0 0 0 0 0 0 0 0 0 0 0 -0 0 0 0 -0
-0 -0 -0 0 0 -0 0 0 -0 -0 0 -0 -0 -0 -0 0 0 0 -0 -0 -0 0 0 0 0 -0 -0 -0 -0 0 0 -0 0 0 0 0 0 0 1 0 0 0 0 0 0 0 0 0 0
0 -0 0 0 0 -0 0 0 -0 -0 0 -0 0 -0 -0 -0 0 -0 -0 -0 -0 0 -0 -1 -0 0 -0 -0 -0 -0 0 -0 -0 0 0 0 0 1 1 0 0 0 0 0 0 0 0 0 0
-0 0 -0 0 0 0 0 -0 0 -0 -0 0 0 -0 -1 -1 -0 -0 -0 -0 -0 -0 -0 -1 -1 -0 -0 -0 -0 -0 0 -0 -0 0 0 1 1 1 0 0 0 0 0 0 0 0 0 0 0
-0 -0 0 0 0 0 0 0 -0 -0 0 0 -0 1 -0 -1 -0 -0 -0 -1 -0 -1 -0 -1 -1 -0 -0 -0 -0 0 0 0 0 0 0 0 0 0 1 0 1 0 0 0 0 0 0 0 0
-0 -0 0 0 0 0 -0 -0 -0 -0 -0 0 0 0 0 -1 -0 -0 -0 -1 -1 -1 -1 -1 -2 -1 -0 -0 0 0 -0 0 0 0 0 0 0 0 1 1 1 0 0 1 0 0 0 0 0
0 -0 0 0 0 0 0 0 0 0 -0 0 -0 0 0 -0 -0 -0 -1 -1 -1 -1 -2 -2 -2 -2 -1 -1 0 -0 0 0 0 0 0 0 0 1 1 1 0 0 0 0 0 0 0 0 0
0 0 -0 0 0 0 -0 0 0 0 0 -0 0 0 0 -0 -0 -0 -1 -1 -0 -1 -1 -2 -1 -1 -1 -1 -1 0 0 0 0 0 1 0 1 0 1 0 0 1 1 0 0 0 0 0 0
0 0 -0 0 0 0 -0 -0 0 0 -0 0 0 0 -0 -0 -0 -0 -1 -0 -0 0 -0 -1 -2 -1 -0 -1 -2 -1 -0 -0 0 0 0 0 0 0 1 0 0 0 0 0 0 0 0 0 0
-0 -0 0 0 0 0 -0 -0 0 0 0 -0 -0 0 -0 -0 -0 -0 -0 -0 -0 0 -0 -0 -1 -2 -1 -1 -2 -2 -1 -0 -0 0 0 0 0 0 0 0 0 0 0 0 0 0 0 0 0
0 -0 0 0 0 -0 -0 0 0 0 -0 0 0 -0 -0 -0 -0 -0 -0 -0 -0 0 0 0 -1 -1 -1 -1 -1 -1 -1 0 0 0 0 0 1 0 0 0 0 0 0 0 0 -0 0 -0 0
-0 0 0 0 0 -0 0 0 0 -0 0 -0 0 -0 -0 -0 -0 -0 -0 0 0 1 1 1 0 -0 0 0 0 -0 -0 -0 0 0 0 0 0 0 0 0 0 0 0 0 0 -0 0 -0 0
0 0 0 0 0 0 0 0 0 -0 0 0 0 0 0 -0 -0 -0 0 0 0 0 0 1 1 1 1 1 0 0 0 0 0 0 0 0 0 0 0 0 0 0 0 0 -0 0 0 -0 -0
0 0 0 0 0 0 0 0 0 -0 0 0 0 0 -0 0 0 0 0 0 0 0 0 0 1 1 2 1 0 0 0 0 0 0 0 0 0 0 0 0 0 0 0 0 0 0 0 0 0
0 0 0 0 0 0 0 0 0 0 0 0 -0 0 0 0 0 0 0 0 0 0 0 1 1 1 1 1 1 0 0 0 0 0 0 0 0 0 0 0 0 0 0 0 0 0 0 0 0
Wind_Speed_500mb
17 18 15 8 3 4 13 9 25 20 20 34 36 43 37 11 16 14 51 52 56 52 53 49 45 43 39 37 33 31 31 27 25 22 19 20 18 18 17 16 21 21 22 22 23 28 30 30 29
10 8 13 10 2 6 4 18 10 23 36 22 21 48 25 18 40 48 51 53 49 50 49 49 45 40 35 32 30 27 26 23 20 19 18 18 18 17 19 19 22 21 21 22 25 29 26 27 32
6 15 16 9 4 0 13 16 18 16 12 44 3 45 23 22 40 47 53 54 49 48 43 48 43 38 33 31 28 26 24 21 19 17 16 18 18 19 23 26 25 24 23 24 24 28 28 30 36
10 10 9 4 18 20 24 17 22 8 20 15 18 26 28 25 44 51 54 52 46 46 41 46 42 37 33 30 29 25 22 20 19 16 15 17 16 19 22 23 22 22 23 24 21 25 25 26 31
15 7 14 13 18 24 21 11 9 13 17 22 35 34 27 18 33 47 53 50 46 57 34 41 39 35 33 29 27 25 21 20 18 16 15 16 14 13 18 18 19 19 20 20 20 22 23 24 28
1 4 6 8 25 18 9 13 9 25 17 10 41 33 18 20 35 49 50 54 57 48 39 36 36 32 30 28 25 24 22 19 18 19 14 14 11 10 12 14 16 18 17 18 18 19 19 21 25
22 1 17 20 10 15 20 10 5 19 25 27 26 26 27 32 46 50 48 54 51 44 36 43 38 32 31 27 24 22 22 20 18 21 13 13 11 8 9 10 15 15 16 16 18 18 19 20 22
32 9 12 3 10 13 26 13 15 32 22 15 4 14 25 44 52 48 45 38 46 48 29 32 33 35 31 27 23 21 20 19 19 17 13 15 9 5 8 9 11 15 16 15 15 18 19 19 19
35 17 11 6 18 19 30 4 36 33 20 26 22 38 56 58 53 50 48 43 45 43 33 34 28 32 29 21 24 19 19 18 18 18 15 11 9 10 7 10 10 6 11 11 13 14 15 15 15
19 2 16 13 20 11 9 20 37 18 46 27 35 42 55 58 52 54 49 38 34 28 32 37 30 29 30 25 22 20 18 15 13 10 12 10 14 10 10 8 9 10 8 7 6 7 10 14 13
23 23 49 47 20 22 38 32 61 59 24 55 38 51 54 54 48 53 46 37 33 36 32 40 33 31 28 33 23 23 13 16 8 17 6 4 4 11 8 11 12 15 7 10 3 7 8 10 13
9 23 14 11 8 18 23 44 25 5 31 43 42 48 51 49 51 46 45 43 44 40 38 37 40 37 29 36 18 16 12 15 21 15 13 15 6 4 10 8 15 11 12 8 23 9 13 13 29
22 15 33 9 6 22 34 51 20 83 54 37 42 46 47 44 41 48 55 51 50 44 45 43 43 42 37 40 27 25 19 24 16 26 18 17 12 11 14 3 15 15 19 11 15 11 9 18 23
9 31 47 8 17 25 7 8 29 46 43 35 38 42 43 42 41 36 47 61 55 47 46 39 44 41 43 36 27 25 25 13 25 20 18 16 24 12 12 9 14 20 14 11 23 24 27 31 23
19 15 26 25 17 7 14 19 28 22 23 36 36 37 38 39 41 44 41 49 51 49 45 49 44 39 50 41 41 35 31 24 23 26 22 28 21 26 17 14 10 22 23 26 17 22 19 18 25
28 29 27 21 11 37 13 3 38 24 21 40 39 34 35 35 39 43 45 45 44 40 43 43 42 42 41 44 40 43 29 22 24 27 25 27 22 28 32 28 23 23 29 28 25 27 29 30 29
30 28 28 19 26 34 22 14 32 67 61 36 46 40 39 37 38 42 44 47 45 44 47 51 43 43 48 37 43 42 33 33 23 32 26 28 27 25 33 32 27 26 23 20 18 12 20 17 19
15 25 30 11 18 26 19 26 43 58 33 48 39 46 47 47 44 44 44 45 44 47 42 48 54 50 40 43 34 37 35 37 34 33 29 34 34 34 29 31 26 25 19 16 17 16 15 12 8
30 7 28 27 21 12 14 22 23 20 52 19 51 47 51 52 47 46 43 44 45 49 49 50 54 57 50 44 46 40 47 31 37 40 40 35 42 43 40 23 24 18 17 21 23 18 19 11 10
41 37 25 17 18 5 16 22 27 29 30 15 35 54 53 48 48 48 47 49 49 51 53 49 54 51 61 61 52 47 45 45 38 41 33 48 52 53 44 32 28 23 22 18 20 19 18 12 15
40 39 16 27 6 23 21 28 33 30 28 36 26 30 55 55 53 53 52 53 52 54 60 59 58 53 67 65 60 49 46 47 45 46 47 56 57 52 48 41 36 27 27 23 20 19 22 16 18
39 36 23 32 15 21 21 20 17 24 32 27 36 33 39 51 47 50 52 55 59 58 61 63 64 65 61 64 61 62 58 52 50 49 54 53 53 47 51 40 38 36 33 33 29 24 25 21 20
38 27 33 26 26 23 40 21 15 14 25 20 9 16 25 48 43 49 52 55 55 58 61 67 63 65 67 63 68 62 61 56 43 49 52 56 61 48 45 48 47 42 38 44 43 35 28 24 24
28 36 39 31 23 23 35 35 14 14 54 8 21 21 30 37 45 47 50 51 52 56 57 63 65 65 61 64 65 69 60 59 50 56 53 57 60 54 60 51 46 51 39 43 50 44 44 33 31
35 34 24 27 23 23 41 35 16 28 6 19 28 32 31 31 51 45 48 51 54 51 60 56 64 67 62 56 64 66 65 62 62 52 55 52 60 57 58 64 58 56 52 42 42 40 52 43 41
38 38 28 26 29 33 40 18 16 14 57 19 21 39 37 36 35 44 47 52 53 51 53 59 56 65 61 56 58 64 63 58 67 60 58 56 53 53 51 46 52 60 46 42 38 47 51 51 45
43 37 36 42 44 31 7 9 52 49 18 24 13 33 43 41 43 44 45 39 44 43 48 46 46 58 57 48 54 57 52 58 50 54 51 57 47 49 39 46 48 48 48 45 40 36 36 42 45
40 38 32 23 35 39 14 20 15 40 21 19 15 20 28 33 30 38 39 34 37 34 36 38 42 43 47 44 46 48 47 50 51 45 52 46 46 50 37 38 35 37 36 34 35 34 35 37 38
32 35 40 36 30 30 29 12 15 54 26 27 17 6 29 32 24 14 14 26 31 31 34 35 38 40 38 36 38 37 42 43 46 46 46 40 40 38 33 37 33 34 30 31 33 33 32 33 37
37 41 44 27 36 31 29 9 15 24 10 18 21 31 33 28 21 16 19 26 32 34 34 36 35 36 35 32 35 38 35 33 31 38 37 36 32 33 30 24 25 29 28 27 29 28 33 34 40
Wind_Direction_500mb
124 123 125 194 109 334 335 71 50 30 66 65 48 71 60 101 117 92 139 135 143 142 149 147 143 141 141 141 143 137 137 133 131 126 114 107 90 81 77 99 105 94 95 98 105 116 114 126 120
110 175 224 257 157 110 21 299 88 56 84 99 100 64 57 28 91 122 133 135 135 141 144 149 149 146 145 147 151 147 141 143 140 130 119 108 80 71 74 99 106 108 104 106 109 119 122 120 111
203 262 274 298 242 49 144 208 88 120 140 89 26 100 122 98 117 132 133 138 136 135 143 148 151 149 147 148 150 154 152 147 142 136 125 110 83 83 89 96 105 108 107 108 114 117 120 120 113
260 313 248 352 174 94 95 82 132 14 120 101 110 91 89 108 112 130 141 140 137 141 160 149 150 151 151 152 153 155 153 148 143 140 129 122 98 90 95 97 101 107 108 107 114 119 118 119 123
33 28 259 213 104 110 92 115 153 106 134 56 100 75 105 114 119 138 147 144 140 151 162 157 155 155 155 156 155 152 152 151 149 141 131 132 113 99 98 97 108 107 111 113 119 121 124 123 119
185 170 258 239 107 59 104 105 103 103 78 114 119 103 106 150 141 145 149 147 142 164 158 168 161 161 161 159 158 155 155 156 148 137 140 138 131 103 112 108 111 117 119 115 124 126 132 132 127
236 301 308 354 84 145 123 99 305 71 80 74 90 99 112 143 141 147 147 156 143 144 169 171 169 166 163 160 159 156 151 157 152 154 154 144 133 116 109 113 123 127 127 127 128 132 136 142 141
266 103 279 15 108 210 75 159 73 87 70 96 359 126 140 147 146 148 145 150 145 152 157 163 170 167 164 158 155 157 160 158 162 164 157 152 130 123 128 132 124 133 132 134 139 137 142 137 136
37 15 314 99 28 345 135 308 73 2 103 71 44 136 146 147 149 149 147 135 140 141 141 152 168 168 157 157 169 163 163 158 162 175 168 149 93 66 26 150 199 156 154 150 144 148 150 144 134
105 66 279 186 192 198 150 155 110 104 349 98 92 115 139 149 154 151 152 154 159 150 160 163 169 170 162 168 179 175 178 161 169 158 165 160 150 196 251 237 232 236 195 158 142 160 158 167 141
145 186 232 266 3 116 33 23 122 110 156 244 132 140 147 153 161 147 152 170 174 179 171 169 177 174 171 179 208 185 184 191 201 175 208 248 92 120 183 289 284 220 174 183 156 157 189 129 163
248 190 271 10 111 74 85 284 281 212 104 117 141 148 152 161 167 171 177 181 185 186 175 173 180 175 178 188 203 192 161 157 212 231 177 215 250 181 233 290 187 191 229 217 238 264 186 197 210
244 38 299 198 261 245 167 206 98 27 340 115 138 152 160 167 178 179 180 178 176 188 184 183 187 182 185 186 187 205 186 192 190 216 235 191 200 256 283 197 177 200 228 201 231 252 225 246 269
341 178 238 283 225 254 253 287 71 132 242 134 147 158 166 175 180 188 178 176 182 183 185 184 190 192 176 189 184 191 205 221 212 229 248 210 217 223 249 254 205 211 249 218 215 243 254 266 257
276 265 253 1 296 187 251 350 68 287 207 147 158 165 172 179 182 188 190 183 187 187 182 191 188 203 191 190 201 187 206 226 199 231 226 241 237 214 217 243 201 208 206 216 253 266 255 253 248
262 257 252 206 313 293 269 260 66 331 247 160 163 169 179 186 188 188 194 197 197 194 189 192 186 200 209 198 208 191 195 218 206 230 244 254 260 230 223 222 223 224 233 232 238 252 261 265 258
240 245 231 179 207 251 234 204 171 209 229 209 160 170 182 189 193 190 195 198 199 199 198 195 196 197 213 209 205 210 201 214 214 218 232 250 260 268 246 233 233 246 246 254 261 273 267 271 249
305 265 343 234 225 228 262 287 180 204 180 201 172 174 181 184 197 192 195 198 198 200 201 203 206 201 215 214 216 213 214 217 224 235 216 249 246 255 260 247 242 244 233 257 266 261 293 297 266
271 181 230 279 196 202 273 284 294 280 197 189 178 178 178 186 193 198 197 198 199 202 203 205 207 208 201 208 214 210 217 227 218 229 223 250 251 255 265 246 238 225 241 243 255 267 277 271 279
261 264 257 221 257 247 260 272 278 282 263 144 207 171 177 185 187 200 198 200 201 205 204 208 220 210 205 210 220 214 216 228 225 234 240 241 247 253 255 235 241 235 237 243 254 263 266 258 268
266 259 255 262 136 262 254 253 249 250 262 181 223 187 178 178 184 195 202 203 204 208 209 208 220 214 208 208 217 226 211 225 227 226 232 233 247 251 247 239 242 247 249 255 255 264 270 253 254
251 259 258 283 279 276 264 280 180 228 266 199 219 193 181 170 180 193 203 208 208 209 212 219 219 223 220 210 210 215 219 216 217 226 224 234 244 243 239 235 239 247 258 256 259 277 279 258 247
259 269 250 233 271 273 266 259 217 193 234 218 123 157 165 158 176 197 205 208 211 211 211 221 223 226 225 225 217 215 223 217 222 225 229 231 246 244 235 241 242 247 258 262 252 258 270 271 250
277 260 266 262 241 255 267 265 118 118 269 349 138 150 157 170 177 193 200 206 209 211 210 216 224 230 232 228 230 226 226 226 223 231 229 232 241 245 237 242 237 240 276 267 257 256 251 261 264
239 244 245 246 231 243 247 256 173 180 208 258 145 153 164 174 174 180 197 200 203 209 207 209 220 227 231 232 235 238 236 231 230 230 223 226 241 250 242 241 247 255 270 281 253 254 243 251 265
234 238 241 238 252 251 241 223 116 334 194 162 184 165 168 177 190 189 189 197 200 205 207 208 213 224 226 232 235 240 246 243 241 235 235 235 239 251 254 247 254 253 269 262 259 255 254 251 260
249 243 248 263 270 271 152 357 347 316 162 158 220 188 174 187 189 190 176 189 194 197 203 205 208 219 221 229 229 236 238 240 241 239 238 241 241 256 260 253 253 243 253 265 249 255 250 245 249
237 259 236 235 264 273 231 161 195 251 194 211 180 202 196 183 191 176 172 177 195 198 203 204 209 210 221 218 230 231 239 239 243 242 242 243 241 246 249 247 248 244 250 237 238 253 252 251 261
220 235 254 269 236 249 266 233 286 234 178 163 186 189 179 141 122 129 157 182 185 189 195 200 206 210 220 214 218 223 233 240 239 243 242 242 238 241 235 248 245 238 245 239 245 254 257 255 256
225 244 226 245 250 263 262 244 94 37 193 190 214 134 105 114 141 163 181 171 174 184 189 196 201 204 211 216 215 222 230 241 238 227 232 229 236 230 249 234 240 238 237 243 246 252 265 261 261
Wind_Speed_850mb
17 18 15 8 3 4 13 9 25 20 20 34 36 43 37 11 16 14 51 52 56 52 53 49 45 43 39 37 33 31 31 27 25 22 19 20 18 18 17 16 21 21 22 22 23 28 30 30 29
10 8 13 10 2 6 4 18 10 23 36 22 21 48 25 18 40 48 51 53 49 50 49 49 45 40 35 32 30 27 26 23 20 19 18 18 18 17 19 19 22 21 21 22 25 29 26 27 32
6 15 16 9 4 0 13 16 18 16 12 44 3 45 23 22 40 47 53 54 49 48 43 48 43 38 33 31 28 26 24 21 19 17 16 18 18 19 23 26 25 24 23 24 24 28 28 30 36
10 10 9 4 18 20 24 17 22 8 20 15 18 26 28 25 44 51 54 52 46 46 41 46 42 37 33 30 29 25 22 20 19 16 15 17 16 19 22 23 22 22 23 24 21 25 25 26 31
15 7 14 13 18 24 21 11 9 13 17 22 35 34 27 18 33 47 53 50 46 57 34 41 39 35 33 29 27 25 21 20 18 16 15 16 14 13 18 18 19 19 20 20 20 22 23 24 28
1 4 6 8 25 18 9 13 9 25 17 10 41 33 18 20 35 49 50 54 57 48 39 36 36 32 30 28 25 24 22 19 18 19 14 14 11 10 12 14 16 18 17 18 18 19 19 21 25
22 1 17 20 10 15 20 10 5 19 25 27 26 26 27 32 46 50 48 54 51 44 36 43 38 32 31 27 24 22 22 20 18 21 13 13 11 8 9 10 15 15 16 16 18 18 19 20 22
32 9 12 3 10 13 26 13 15 32 22 15 4 14 25 44 52 48 45 38 46 48 29 32 33 35 31 27 23 21 20 19 19 17 13 15 9 5 8 9 11 15 16 15 15 18 19 19 19
35 17 11 6 18 19 30 4 36 33 20 26 22 38 56 58 53 50 48 43 45 43 33 34 28 32 29 21 24 19 19 18 18 18 15 11 9 10 7 10 10 6 11 11 13 14 15 15 15
19 2 16 13 20 11 9 20 37 18 46 27 35 42 55 58 52 54 49 38 34 28 32 37 30 29 30 25 22 20 18 15 13 10 12 10 14 10 10 8 9 10 8 7 6 7 10 14 13
23 23 49 47 20 22 38 32 61 59 24 55 38 51 54 54 48 53 46 37 33 36 32 40 33 31 28 33 23 23 13 16 8 17 6 4 4 11 8 11 12 15 7 10 3 7 8 10 13
9 23 14 11 8 18 23 44 25 5 31 43 42 48 51 49 51 46 45 43 44 40 38 37 40 37 29 36 18 16 12 15 21 15 13 15 6 4 10 8 15 11 12 8 23 9 13 13 29
22 15 33 9 6 22 34 51 20 83 54 37 42 46 47 44 41 48 55 51 50 44 45 43 43 42 37 40 27 25 19 24 16 26 18 17 12 11 14 3 15 15 19 11 15 11 9 18 23
9 31 47 8 17 25 7 8 29 46 43 35 38 42 43 42 41 36 47 61 55 47 46 39 44 41 43 36 27 25 25 13 25 20 18 16 24 12 12 9 14 20 14 11 23 24 27 31 23
19 15 26 25 17 7 14 19 28 22 23 36 36 37 38 39 41 44 41 49 51 49 45 49 44 39 50 41 41 35 31 24 23 26 22 28 21 26 17 14 10 22 23 26 17 22 19 18 25
28 29 27 21 11 37 13 3 38 24 21 40 39 34 35 35 39 43 45 45 44 40 43 43 42 42 41 44 40 43 29 22 24 27 25 27 22 28 32 28 23 23 29 28 25 27 29 30 29
30 28 28 19 26 34 22 14 32 67 61 36 46 40 39 37 38 42 44 47 45 44 47 51 43 43 48 37 43 42 33 33 23 32 26 28 27 25 33 32 27 26 23 20 18 12 20 17 19
15 25 30 11 18 26 19 26 43 58 33 48 39 46 47 47 44 44 44 45 44 47 42 48 54 50 40 43 34 37 35 37 34 33 29 34 34 34 29 31 26 25 19 16 17 16 15 12 8
30 7 28 27 21 12 14 22 23 20 52 19 51 47 51 52 47 46 43 44 45 49 49 50 54 57 50 44 46 40 47 31 37 40 40 35 42 43 40 23 24 18 17 21 23 18 19 11 10
41 37 25 17 18 5 16 22 27 29 30 15 35 54 53 48 48 48 47 49 49 51 53 49 54 51 61 61 52 47 45 45 38 41 33 48 52 53 44 32 28 23 22 18 20 19 18 12 15
40 39 16 27 6 23 21 28 33 30 28 36 26 30 55 55 53 53 52 53 52 54 60 59 58 53 67 65 60 49 46 47 45 46 47 56 57 52 48 41 36 27 27 23 20 19 22 16 18
39 36 23 32 15 21 21 20 17 24 32 27 36 33 39 51 47 50 52 55 59 58 61 63 64 65 61 64 61 62 58 52 50 49 54 53 53 47 51 40 38 36 33 33 29 24 25 21 20
38 27 33 26 26 23 40 21 15 14 25 20 9 16 25 48 43 49 52 55 55 58 61 67 63 65 67 63 68 62 61 56 43 49 52 56 61 48 45 48 47 42 38 44 43 35 28 24 24
28 36 39 31 23 23 35 35 14 14 54 8 21 21 30 37 45 47 50 51 52 56 57 63 65 65 61 64 65 69 60 59 50 56 53 57 60 54 60 51 46 51 39 43 50 44 44 33 31
35 34 24 27 23 23 41 35 16 28 6 19 28 32 31 31 51 45 48 51 54 51 60 56 64 67 62 56 64 66 65 62 62 52 55 52 60 57 58 64 58 56 52 42 42 40 52 43 41
38 38 28 26 29 33 40 18 16 14 57 19 21 39 37 36 35 44 47 52 53 51 53 59 56 65 61 56 58 64 63 58 67 60 58 56 53 53 51 46 52 60 46 42 38 47 51 51 45
43 37 36 42 44 31 7 9 52 49 18 24 13 33 43 41 43 44 45 39 44 43 48 46 46 58 57 48 54 57 52 58 50 54 51 57 47 49 39 46 48 48 48 45 40 36 36 42 45
40 38 32 23 35 39 14 20 15 40 21 19 15 20 28 33 30 38 39 34 37 34 36 38 42 43 47 44 46 48 47 50 51 45 52 46 46 50 37 38 35 37 36 34 35 34 35 37 38
32 35 40 36 30 30 29 12 15 54 26 27 17 6 29 32 24 14 14 26 31 31 34 35 38 40 38 36 38 37 42 43 46 46 46 40 40 38 33 37 33 34 30 31 33 33 32 33 37
37 41 44 27 36 31 29 9 15 24 10 18 21 31 33 28 21 16 19 26 32 34 34 36 35 36 35 32 35 38 35 33 31 38 37 36 32 33 30 24 25 29 28 27 29 28 33 34 40
Wind_Direction_850mb
124 123 125 194 109 334 335 71 50 30 66 65 48 71 60 101 117 92 139 135 143 142 149 147 143 141 141 141 143 137 137 133 131 126 114 107 90 81 77 99 105 94 95 98 105 116 114 126 120
110 175 224 257 157 110 21 299 88 56 84 99 100 64 57 28 91 122 133 135 135 141 144 149 149 146 145 147 151 147 141 143 140 130 119 108 80 71 74 99 106 108 104 106 109 119 122 120 111
203 262 274 298 242 49 144 208 88 120 140 89 26 100 122 98 117 132 133 138 136 135 143 148 151 149 147 148 150 154 152 147 142 136 125 110 83 83 89 96 105 108 107 108 114 117 120 120 113
260 313 248 352 174 94 95 82 132 14 120 101 110 91 89 108 112 130 141 140 137 141 160 149 150 151 151 152 153 155 153 148 143 140 129 122 98 90 95 97 101 107 108 107 114 119 118 119 123
33 28 259 213 104 110 92 115 153 106 134 56 100 75 105 114 119 138 147 144 140 151 162 157 155 155 155 156 155 152 152 151 149 141 131 132 113 99 98 97 108 107 111 113 119 121 124 123 119
185 170 258 239 107 59 104 105 103 103 78 114 119 103 106 150 141 145 149 147 142 164 158 168 161 161 161 159 158 155 155 156 148 137 140 138 131 103 112 108 111 117 119 115 124 126 132 132 127
236 301 308 354 84 145 123 99 305 71 80 74 90 99 112 143 141 147 147 156 143 144 169 171 169 166 163 160 159 156 151 157 152 154 154 144 133 116 109 113 123 127 127 127 128 132 136 142 141
266 103 279 15 108 210 75 159 73 87 70 96 359 126 140 147 146 148 145 150 145 152 157 163 170 167 164 158 155 157 160 158 162 164 157 152 130 123 128 132 124 133 132 134 139 137 142 137 136
37 15 314 99 28 345 135 308 73 2 103 71 44 136 146 147 149 149 147 135 140 141 141 152 168 168 157 157 169 163 163 158 162 175 168 149 93 66 26 150 199 156 154 150 144 148 150 144 134
105 66 279 186 192 198 150 155 110 104 349 98 92 115 139 149 154 151 152 154 159 150 160 163 169 170 162 168 179 175 178 161 169 158 165 160 150 196 251 237 232 236 195 158 142 160 158 167 141
145 186 232 266 3 116 33 23 122 110 156 244 132 140 147 153 161 147 152 170 174 179 171 169 177 174 171 179 208 185 184 191 201 175 208 248 92 120 183 289 284 220 174 183 156 157 189 129 163
248 190 271 10 111 74 85 284 281 212 104 117 141 148 152 161 167 171 177 181 185 186 175 173 180 175 178 188 203 192 161 157 212 231 177 215 250 181 233 290 187 191 229 217 238 264 186 197 210
244 38 299 198 261 245 167 206 98 27 340 115 138 152 160 167 178 179 180 178 176 188 184 183 187 182 185 186 187 205 186 192 190 216 235 191 200 256 283 197 177 200 228 201 231 252 225 246 269
341 178 238 283 225 254 253 287 71 132 242 134 147 158 166 175 180 188 178 176 182 183 185 184 190 192 176 189 184 191 205 221 212 229 248 210 217 223 249 254 205 211 249 218 215 243 254 266 257
276 265 253 1 296 187 251 350 68 287 207 147 158 165 172 179 182 188 190 183 187 187 182 191 188 203 191 190 201 187 206 226 199 231 226 241 237 214 217 243 201 208 206 216 253 266 255 253 248
262 257 252 206 313 293 269 260 66 331 247 160 163 169 179 186 188 188 194 197 197 194 189 192 186 200 209 198 208 191 195 218 206 230 244 254 260 230 223 222 223 224 233 232 238 252 261 265 258
240 245 231 179 207 251 234 204 171 209 229 209 160 170 182 189 193 190 195 198 199 199 198 195 196 197 213 209 205 210 201 214 214 218 232 250 260 268 246 233 233 246 246 254 261 273 267 271 249
305 265 343 234 225 228 262 287 180 204 180 201 172 174 181 184 197 192 195 198 198 200 201 203 206 201 215 214 216 213 214 217 224 235 216 249 246 255 260 247 242 244 233 257 266 261 293 297 266
271 181 230 279 196 202 273 284 294 280 197 189 178 178 178 186 193 198 197 198 199 202 203 205 207 208 201 208 214 210 217 227 218 229 223 250 251 255 265 246 238 225 241 243 255 267 277 271 279
261 264 257 221 257 247 260 272 278 282 263 144 207 171 177 185 187 200 198 200 201 205 204 208 220 210 205 210 220 214 216 228 225 234 240 241 247 253 255 235 241 235 237 243 254 263 266 258 268
266 259 255 262 136 262 254 253 249 250 262 181 223 187 178 178 184 195 202 203 204 208 209 208 220 214 208 208 217 226 211 225 227 226 232 233 247 251 247 239 242 247 249 255 255 264 270 253 254
251 259 258 283 279 276 264 280 180 228 266 199 219 193 181 170 180 193 203 208 208 209 212 219 219 223 220 210 210 215 219 216 217 226 224 234 244 243 239 235 239 247 258 256 259 277 279 258 247
259 269 250 233 271 273 266 259 217 193 234 218 123 157 165 158 176 197 205 208 211 211 211 221 223 226 225 225 217 215 223 217 222 225 229 231 246 244 235 241 242 247 258 262 252 258 270 271 250
277 260 266 262 241 255 267 265 118 118 269 349 138 150 157 170 177 193 200 206 209 211 210 216 224 230 232 228 230 226 226 226 223 231 229 232 241 245 237 242 237 240 276 267 257 256 251 261 264
239 244 245 246 231 243 247 256 173 180 208 258 145 153 164 174 174 180 197 200 203 209 207 209 220 227 231 232 235 238 236 231 230 230 223 226 241 250 242 241 247 255 270 281 253 254 243 251 265
234 238 241 238 252 251 241 223 116 334 194 162 184 165 168 177 190 189 189 197 200 205 207 208 213 224 226 232 235 240 246 243 241 235 235 235 239 251 254 247 254 253 269 262 259 255 254 251 260
249 243 248 263 270 271 152 357 347 316 162 158 220 188 174 187 189 190 176 189 194 197 203 205 208 219 221 229 229 236 238 240 241 239 238 241 241 256 260 253 253 243 253 265 249 255 250 245 249
237 259 236 235 264 273 231 161 195 251 194 211 180 202 196 183 191 176 172 177 195 198 203 204 209 210 221 218 230 231 239 239 243 242 242 243 241 246 249 247 248 244 250 237 238 253 252 251 261
220 235 254 269 236 249 266 233 286 234 178 163 186 189 179 141 122 129 157 182 185 189 195 200 206 210 220 214 218 223 233 240 239 243 242 242 238 241 235 248 245 238 245 239 245 254 257 255 256
225 244 226 245 250 263 262 244 94 37 193 190 214 134 105 114 141 163 181 171 174 184 189 196 201 204 211 216 215 222 230 241 238 227 232 229 236 230 249 234 240 238 237 243 246 252 265 261 261